Terminal Aerodrome Forecast
Issued by NWS

Home | Current Version | Previous Version | Text Only | Print | Product List | Glossary On
Versions: 1 2 3 4 5 6 7 8 9 10 11 12 13 14 15 16 17 18 19 20 21 22 23 24 25 26 27 28
000
FTUS43 KDLH 061045 AAA
TAFBRD
TAF AMD
KBRD 061045Z 0611/0706 20007KT P6SM SCT008 BKN060
      TEMPO 0611/0613 5SM BR BKN006
     FM062000 20011G18KT 5SM -FZDZSN BKN050
     FM070100 23014KT P6SM BKN100=

USA.gov is the U.S. government's official web portal to all federal, state and local government web resources and services.